FW0019 Weather Reports


time (UTC)temp
C
wind
direction
speed
KPH
gust
KPH
rain 1hr
cm
rain 24hr
cm
rain mn
cm
humidity
%
barometer
mb
20260906051503 19 130 3.2 6.4 0.00 0.00 0.00 63 879.9
20260906050100 19 126 3.2 11.3 0.00 0.00 0.00 62 880.0
20260906044600 19 103 6.4 12.9 0.00 0.00 0.00 62 880.0
20260906043102 19 109 8.0 14.5 0.00 0.00 0.00 61 880.0
20260906041602 19 114 6.4 12.9 0.00 0.00 0.00 61 879.9
20260906040058 19 108 8.0 12.9 0.00 0.00 0.00 60 879.7
20260906034557 19 102 9.7 14.5 0.00 0.00 0.00 59 879.6
20260906033109 20 136 9.7 16.1 0.00 0.00 0.00 58 879.5
20260906031555 20 96 6.4 17.7 0.00 0.00 0.00 57 879.4
20260906030055 20 123 11.3 17.7 0.00 0.00 0.00 56 879.3
20260906024556 20 135 12.9 20.9 0.00 0.00 0.00 56 879.2
20260906023056 21 103 11.3 19.3 0.00 0.00 0.00 55 879.1
20260906021558 21 122 12.9 20.9 0.00 0.00 0.00 55 879.3
20260906020104 22 111 11.3 22.5 0.00 0.00 0.00 53 879.3
20260906014554 22 146 12.9 22.5 0.00 0.00 0.00 52 879.4
20260906013058 23 107 11.3 22.5 0.00 0.00 0.00 50 879.5
20260906011601 23 106 11.3 22.5 0.00 0.00 0.00 48 879.5
20260906010049 23 142 12.9 24.1 0.00 0.00 0.00 48 879.5
20260906004556 25 120 8.0 29.0 0.00 0.00 0.00 46 879.6
20260906003047 25 135 14.5 29.0 0.00 0.00 0.00 45 879.5
20260906001548 25 126 14.5 24.1 0.00 0.00 0.00 45 879.5
20260906000053 25 165 14.5 25.7 0.00 0.00 0.00 44 879.5
20260905234547 26 163 16.1 27.4 0.00 0.00 0.00 42 879.4
20260905233044 26 95 16.1 29.0 0.00 0.00 0.00 40 879.6
20260905231543 26 66 9.7 29.0 0.00 0.00 0.00 42 879.6
20260905230041 26 107 9.7 20.9 0.00 0.00 0.00 39 879.6
20260905224548 26 154 16.1 30.6 0.00 0.00 0.00 40 879.6
20260905223039 26 74 11.3 25.7 0.00 0.00 0.00 40 879.7
20260905221538 26 136 17.7 29.0 0.00 0.00 0.00 39 879.6
20260905220037 26 148 14.5 25.7 0.00 0.00 0.00 40 879.9
20260905214536 26 159 12.9 32.2 0.00 0.00 0.00 40 880.1
20260905213035 26 131 11.3 30.6 0.00 0.00 0.00 39 880.2
20260905211544 26 116 6.4 25.7 0.00 0.00 0.00 39 880.3
20260905210033 26 121 12.9 27.4 0.00 0.00 0.00 42 880.4
20260905204537 25 134 16.1 25.7 0.00 0.00 0.00 41 880.4
20260905203031 25 132 12.9 25.7 0.00 0.00 0.00 42 880.5
20260905201531 26 155 12.9 32.2 0.00 0.00 0.00 40 880.5
20260905200032 26 138 16.1 29.0 0.00 0.00 0.00 39 880.4
20260905194527 26 117 9.7 19.3 0.00 0.00 0.00 39 880.6
20260905193025 26 152 16.1 32.2 0.00 0.00 0.00 39 880.8
20260905191527 26 139 16.1 30.6 0.00 0.00 0.00 39 880.9
20260905190024 25 140 9.7 29.0 0.00 0.00 0.00 40 881.0
20260905184542 25 123 6.4 29.0 0.00 0.00 0.00 35 881.0
20260905183037 25 196 16.1 30.6 0.00 0.00 0.00 31 881.0
20260905181522 25 125 16.1 30.6 0.00 0.00 0.00 32 881.0
20260905180021 24 115 17.7 33.8 0.00 0.00 0.00 32 881.0
20260905174515 24 146 14.5 27.4 0.00 0.00 0.00 36 880.9
20260905173012 24 130 17.7 30.6 0.00 0.00 0.00 36 880.7
20260905171510 23 174 14.5 27.4 0.00 0.00 0.00 36 880.6
20260905170008 23 123 14.5 32.2 0.00 0.00 0.00 34 880.4
20260905164506 23 167 16.1 35.4 0.00 0.00 0.00 33 880.3
20260905163004 23 140 16.1 29.0 0.00 0.00 0.00 34 880.3
20260905161503 22 157 11.3 25.7 0.00 0.00 0.00 35 880.3
20260905154615 22 165 9.7 19.3 0.00 0.00 0.00 23 880.2
20260905153102 22 163 6.4 17.7 0.00 0.00 0.00 22 880.1
20260905151552 21 132 4.8 11.3 0.00 0.00 0.00 21 880.0
20260905150048 21 118 8.0 12.9 0.00 0.00 0.00 20 880.0
20260905144545 20 110 3.2 8.0 0.00 0.00 0.00 21 879.8
20260905143041 19 111 6.4 12.9 0.00 0.00 0.00 19 879.6
20260905141537 18 109 4.8 11.3 0.00 0.00 0.00 21 879.3
20260905140041 17 107 4.8 8.0 0.00 0.00 0.00 20 879.2
20260905134537 16 81 1.6 8.0 0.00 0.00 0.00 21 879.0
20260905133042 17 88 1.6 11.3 0.00 0.00 0.00 21 878.9
20260905131538 17 112 3.2 11.3 0.00 0.00 0.00 21 878.6
20260905130033 17 69 4.8 12.9 0.00 0.00 0.00 20 878.5
20260905124535 17 40 4.8 12.9 0.00 0.00 0.00 19 878.5
20260905123031 17 105 4.8 12.9 0.00 0.00 0.00 18 878.5
20260905121531 18 91 6.4 12.9 0.00 0.00 0.00 16 878.5
20260905120031 18 82 3.2 11.3 0.00 0.00 0.00 17 878.3
20260905114529 18 134 6.4 17.7 0.00 0.00 0.00 15 878.3
20260905113033 17 89 4.8 14.5 0.00 0.00 0.00 15 878.4
20260905111535 17 118 8.0 16.1 0.00 0.00 0.00 13 878.4
20260905110037 17 78 6.4 14.5 0.00 0.00 0.00 11 878.4
20260905104527 17 88 4.8 12.9 0.00 0.00 0.00 13 878.5
20260905103020 17 115 3.2 17.7 0.00 0.00 0.00 15 878.4
20260905101518 16 73 1.6 12.9 0.00 0.00 0.00 17 878.4
20260905100016 15 41 1.6 6.4 0.00 0.00 0.00 18 878.5
20260905094515 15 36 1.6 8.0 0.00 0.00 0.00 19 878.7
20260905093015 15 103 3.2 8.0 0.00 0.00 0.00 18 878.7
20260905091514 16 107 1.6 6.4 0.00 0.00 0.00 18 878.6
20260905090016 15 60 3.2 16.1 0.00 0.00 0.00 18 878.7
20260905084508 16 95 3.2 11.3 0.00 0.00 0.00 19 878.8
20260905083006 15 104 4.8 16.1 0.00 0.00 0.00 20 878.9
20260905081503 16 107 6.4 12.9 0.00 0.00 0.00 24 879.0
20260905080002 16 101 8.0 17.7 0.00 0.00 0.00 22 879.1
20260905074600 16 66 6.4 14.5 0.00 0.00 0.00 23 879.2
20260905073101 16 107 6.4 20.9 0.00 0.00 0.00 27 879.1
20260905071557 16 96 6.4 20.9 0.00 0.00 0.00 26 879.1
20260905070054 16 37 8.0 20.9 0.00 0.00 0.00 27 878.9
20260905064553 16 66 6.4 14.5 0.00 0.00 0.00 27 878.9
20260905063053 16 88 6.4 16.1 0.00 0.00 0.00 28 878.9
20260905061558 16 87 8.0 14.5 0.00 0.00 0.00 29 878.8
20260905060051 16 96 14.5 22.5 0.00 0.00 0.00 27 878.8
20260905054551 16 102 6.4 14.5 0.00 0.00 0.00 34 878.8
20260905053051 16 105 11.3 17.7 0.00 0.00 0.00 31 878.8